    Orbital elements:
    2007 DS84                                           PHA, Earth MOID = 0.0297 AU
    Epoch 2012 Mar. 14.0 TT = JDT 2456000.5                 MPC
    M 334.32430              (2000.0)            P               Q
    n   0.38664778     Peri.  172.78889     -0.91665848     +0.39178302
    a   1.8660604      Node    30.65766     -0.37399407     -0.77111776
    e   0.4467500      Incl.    8.91439     -0.14094559     -0.50187993
    P   2.55           H   20.8           G   0.15           U   0
    Residuals in seconds of arc
    070227 703  0.3-  0.9+    070330 G72 (0.4-  2.1-)   070410 084  0.1-  0.2-
    070227 703  0.1-  0.9-    070330 G72 (0.7-  2.2-)   070410 084  0.1-  0.1-
    070227 703  0.1+  0.3-    070330 G72  1.4-  1.6+    070410 084  0.2-  0.1-
    070227 703  0.4-  1.4+    070331 084  0.5-  0.2+    070410 084  0.2-  0.3-
    070227 703  0.4+  0.1-    070331 084  0.2-  0.0     070410 084  0.2-  0.1+
    070227 703  0.0   0.0     070401 084  0.7-  1.0+    070410 084  0.2-  0.0
    070227 703  0.6-  1.1+    070401 084  1.0-  0.9+    070410 084  0.2-  0.0
    070227 703  0.0   0.1-    070401 B30 (1.3-  2.4+)   070410 084  0.1-  0.0
    070227 703  0.4+  0.3+    070401 B30 (3.6-  1.7+)   070410 084  0.0   0.1-
    070227 703  0.3+  0.5+    070401 B30 (4.2-  0.3+)   070410 084  0.1-  0.1-
    070227 703  0.1+  0.3+    070401 B30 (3.4-  1.4+)   070410 084  0.1-  0.1-
    070227 703  0.7+  0.2+    070401 G72  0.3-  0.2+    070410 084  0.2-  0.2-
    070228 850  0.1+  0.6+    070401 H45  0.3-  0.1-    070410 084  0.2-  0.2+
    070228 850  1.2+  0.3+    070401 H45  0.2-  0.2-    070410 084  0.0   0.1-
    070228 850  0.8-  0.6+    070401 G72  0.0   0.8-    070410 084  0.2-  0.1-
    070228 850  0.7+  0.2+    070401 H45  0.2-  0.0     070410 084  0.0   0.3-
    070228 703  0.0   0.5+    070401 H45  0.1-  0.1-    070410 A24  0.6+  0.1-
    070228 703  0.5+  0.6+    070401 H45  0.2-  0.1+    070410 084  0.2-  0.2+
    070228 703  0.3+  1.2+    070401 H45  0.1-  0.1-    070410 084  0.3-  0.1-
    070228 703  0.3-  0.5+    070401 G72  0.2+  0.2-    070410 084  0.2-  0.1+
    070301 J95  0.1-  0.1+    070401 G72  0.6+  0.5-    070410 084  0.1-  0.2-
    070301 J95  0.1-  0.1-    070401 G72  0.3-  0.8+    070410 084  0.1-  0.1-
    070301 J95  0.1-  0.2+    070401 G72  0.0   0.1+    070410 A24  0.4+  0.1-
    070302 673  1.6-  0.5+    070401 084  0.0   0.5-    070410 379  0.1+  0.4+
    070302 673  0.3+  0.9+    070401 084  0.1-  0.0     070410 379  0.5-  0.0
    070302 673  0.0   0.0     070401 084  0.5-  0.2-    070410 379  0.5-  0.3-
    070302 673  0.7+  0.4+    070401 084  1.0-  0.1-    070410 379  0.6-  0.2+
    070302 673  0.0   0.2-    070401 084  0.3-  0.3-    070410 379  0.0   0.4+
    070302 673  0.2-  0.1-    070401 084  0.5-  0.1-    070410 379  0.3-  0.1-
    070302 673  0.1+  0.6-    070401 084  0.1-  0.4-    070410 379  0.2-  0.1+
    070302 673  0.7+  0.6+    070401 084  0.4-  0.3-    070410 379  0.2-  0.4+
    070303 H45  0.2+  0.4+    070401 084  0.5-  0.3-    070410 379  0.3-  0.1-
    070303 H45  0.3+  0.7-    070401 084  0.3+  0.8-    070410 379  0.3-  0.1-
    070303 H45  0.4+  0.4+    070401 084  0.2-  0.5-    070411 B30  0.1-  0.8+
    070303 H45  0.3+  0.4-    070401 084  0.3-  0.3+    070411 B30  0.7+  0.9-
    070303 H45  0.1-  0.6+    070401 084  0.3+  0.0     070411 B30  1.3+  1.6-
    070303 H45  0.5+  0.0     070401 084  0.2-  0.0     070411 B30  1.5+  1.0-
    070303 H45  0.8+  0.1+    070402 H45  0.1-  0.2+    070411 B30  0.5+  0.0
    070305 461  0.2-  0.1-    070402 H45  0.1-  0.2-    070411 B30  0.3+  0.2+
    070305 461  0.2-  0.1+    070402 H45  0.0   0.1-    070411 B30  0.4+  0.2-
    070305 461  0.2+  0.1-    070402 H45  0.4-  0.1-    070411 B30  0.7+  0.2+
    070305 H45  0.4+  0.4+    070402 H45  0.3-  0.2+    070411 B30  0.5+  0.1+
    070305 H45  0.1+  0.2+    070402 H45  0.3-  0.1-    070411 B30  0.8-  1.4+
    070305 H45  0.1-  0.1-    070402 H45  0.2-  0.1-    070411 B30  0.2+  0.2+
    070305 H45  0.1+  0.1+    070402 198  0.2-  0.4+    070411 B30  0.3+  0.2+
    070305 H45  0.0   0.2+    070402 198  0.1-  0.3+    070411 B30  0.1+  0.5+
    070305 H45  0.9+  0.3+    070402 198  0.1-  0.2+    070411 B30  0.3+  0.1-
    070305 H45  0.0   0.5+    070402 198  0.2-  0.2+    070411 B30  0.1-  1.1+
    070305 H45  0.2-  0.1+    070402 198  0.1-  0.2+    070411 B30  0.0   0.4+
    070305 198  0.2+  0.1-    070402 A53  0.1-  0.1-    070411 B30  0.0   0.2+
    070305 198  0.2+  0.1-    070402 A53  0.0   0.4+    070411 B30  0.1-  0.5+
    070305 198  0.1-  0.1+    070402 A53  0.6-  0.5+    070411 B30  0.2-  1.0+
    070307 118  0.9+  0.5-    070403 379  0.1-  0.8+    070411 B30  0.6+  0.3+
    070307 118  0.7+  1.1-    070403 379  0.4-  0.4+    070411 B30  0.9+  0.1-
    070307 118  1.1+  0.7-    070403 379  0.3-  0.3+    070411 703  0.3-  0.6-
    070307 850  0.5+  0.1+    070403 379  0.2-  0.6+    070411 703  0.2-  0.6-
    070307 850  0.5-  0.2-    070403 379  0.6-  0.0     070411 703  0.4-  0.6-
    070307 850  0.1-  0.1-    070404 084  0.1-  0.3-    070411 703  0.1-  0.8-
    070307 850  0.1+  0.1+    070404 084  0.1-  0.6-    070411 379  0.2-  0.3+
    070307 850  0.2+  0.2+    070404 084  0.1+  0.5-    070411 379  0.1-  0.1-
    070307 H45  0.3+  0.1+    070404 084 (0.8-  3.0+)   070411 379  0.2+  0.4+
    070307 H45  0.1+  0.2+    070404 379  0.2-  0.2-    070411 379  0.1-  0.2+
    070307 H45  0.2-  0.0     070404 379  0.1-  0.4+    070411 379  0.0   0.5+
    070307 H45  0.4+  0.2+    070404 379  0.0   0.0     070411 379  0.3-  0.1+
    070307 H45  0.5+  0.1+    070404 379  0.3-  0.2+    070411 379  0.5-  0.3+
    070307 H45  0.1-  0.1+    070404 379  0.3-  0.7+    070411 379  0.3-  0.2+
    070307 H45  0.0   0.0     070404 379  0.2-  0.5+    070411 379  0.4-  0.0
    070308 355  1.2-  0.7-    070404 379  0.2-  0.1+    070411 379  0.1-  0.1-
    070308 355  1.4-  0.3-    070404 379  0.0   0.1+    070411 379  0.2-  0.1+
    070308 355  0.9-  0.9-    070404 379  0.1+  0.2+    070411 379  0.3-  0.1+
    070310 151  0.6-  0.2-    070404 379  0.3+  0.1-    070411 379  0.3-  0.0
    070310 151  0.4-  0.1-    070404 379  0.2-  0.0     070411 A66 (0.3-  2.2+)
    070310 151  0.4-  0.4+    070404 379  0.3-  0.1+    070411 A66  0.5-  1.1+
    070311 A48  0.1+  0.2-    070404 379  0.2-  0.1+    070411 A66  0.4-  1.1+
    070311 A48  0.2+  0.2-    070404 113  0.5-  0.5-    070411 A66  1.1+  0.6+
    070311 A48  0.1-  0.3-    070404 113  0.2-  0.2-    070411 A66  0.4+  0.5+
    070311 A48  0.1-  0.4-    070404 113  0.4-  0.5+    070411 A66  0.3+  0.8+
    070311 130  0.3-  0.5-    070404 113  0.4-  0.4-    070411 A66  0.1+  0.8+
    070311 130  0.3-  0.2-    070404 113  0.5-  0.2-    070411 A66  0.8+  0.0
    070311 130  0.4-  0.1-    070404 113  0.5-  0.1+    070411 A66  0.4+  0.7+
    070311 130  0.3-  0.3-    070404 B24  1.5+  1.3-    070411 A66  0.6+  0.8+
    070312 A24  0.4-  1.0+    070404 B24 (2.4+  1.0-)   070411 A66  1.0+  0.6+
    070312 A24  0.2-  0.5+    070404 B24  0.9+  1.6-    070411 A66  0.2-  1.0+
    070312 A24  0.5-  0.5-    070404 B24 (2.7+  1.6-)   070411 A66  0.3+  0.0
    070313 A24  0.2-  0.1-    070404 473  0.2-  0.1-    070411 A66  0.5-  0.3+
    070313 A24  0.2-  0.7-    070404 B24  1.6+  0.4-    070411 A66  0.1+  0.2+
    070313 A24  0.4-  0.2-    070404 B24  0.9+  1.4-    070411 127  0.3-  0.5+
    070313 A24  0.2-  0.5+    070404 B24  0.8+  1.8-    070411 127  0.2+  0.5+
    070313 A24  0.3-  0.2+    070404 473  0.0   0.1-    070411 127  0.3-  0.3+
    070313 A24  0.1+  0.2+    070404 473  0.0   0.3-    070411 127  0.5-  0.3+
    070313 A24  0.1+  0.1-    070405 649  0.2-  0.2-    070411 127  0.3-  0.8+
    070313 A24  0.9+  0.2-    070405 649  0.1-  0.0     070411 B23  0.9+  1.7-
    070313 A24  0.4-  0.3-    070405 649  0.2-  0.2-    070411 B23  0.9+  1.9-
    070313 A24  0.2-  0.1-    070405 379  0.1-  0.9+    070411 B23  1.3+  1.8-
    070313 A24  0.4-  0.7+    070405 379  0.1+  0.6+    070411 B23  1.1+  1.8-
    070313 A24  0.4+  0.1+    070405 379  0.7-  0.5+    070411 510  0.3+  0.4+
    070313 A24  0.1-  0.5+    070405 379  0.8-  0.2+    070411 510  0.4-  0.6+
    070314 A24  0.3+  0.8-    070405 379  0.7-  0.1+    070412 113  0.0   0.0
    070314 A24  0.5+  0.4-    070405 379  0.6-  0.1+    070412 113  0.1+  0.1+
    070314 A24  0.2+  0.2+    070405 595  0.3+  0.4+    070412 113  0.0   0.3+
    070314 A24  0.0   0.3+    070405 595  0.2-  0.8+    070412 113  0.1-  0.1+
    070314 A24  0.1+  0.3-    070405 595  0.1-  0.4+    070412 113  0.1+  0.2+
    070314 A24  0.1+  0.1+    070405 J69  0.1+  0.3+    070412 127  0.2+  0.9+
    070314 151  0.7+  0.8-    070405 J69  0.1+  0.7+    070412 127  0.2-  0.7+
    070314 151  0.2+  0.4-    070405 J69  0.3+  0.5+    070412 127  0.1+  0.5+
    070314 151  0.1-  0.1-    070405 B23  1.2+  1.3-    070412 127  0.6+  0.1+
    070315 A24  0.0   0.8+    070405 B23  1.1+  1.1-    070412 127  0.0   0.5+
    070315 A24  0.2+  0.3-    070405 B23  1.3+  1.4-    070413 084  0.2-  0.4+
    070315 A24  0.3+  0.1-    070405 B23  1.1+  1.0-    070413 084  0.0   0.0
    070315 A24  0.2+  0.4-    070405 B23  1.2+  1.2-    070413 084  0.3-  0.1+
    070315 A24  0.2+  0.2-    070406 H51  0.3+  0.1+    070413 084  0.6+  0.6-
    070315 A24  0.3-  0.1-    070406 H51  0.2+  0.0     070413 A32  0.1+  0.5-
    070315 A24  0.2-  0.1+    070406 H51  0.3+  0.2-    070413 A32  0.3+  0.7-
    070315 A24  0.2-  0.2+    070406 H51  0.2-  0.0     070413 A32  0.3+  0.5-
    070315 A24  0.2+  0.0     070406 H51  0.2+  0.1+    070413 A32  0.6+  0.4-
    070315 A24  0.4-  0.3+    070406 H51  0.1+  0.9+    070413 A32  0.4+  0.2-
    070315 A24  1.0+  0.1-    070406 H51  0.4-  1.6+    070413 510  0.3-  0.4+
    070315 A24  0.2-  0.9+    070406 H51  0.1-  0.1+    070413 510  0.2-  0.2+
    070316 046  0.3+  1.0-    070406 H51  0.6+  1.0-    070413 510  0.1+  0.1-
    070316 046  1.0+  0.3-    070406 H51  0.4-  0.4+    070414 473  0.1-  0.1-
    070316 046  0.3+  0.2-    070406 379  0.2+  0.3+    070414 473  0.1+  0.5-
    070316 046  0.9+  0.6-    070406 379  0.3+  0.1-    070414 113  0.1+  0.3-
    070316 046  0.4+  0.3-    070406 379  0.3-  0.1+    070414 113  0.0   0.1+
    070316 046  1.0+  0.3-    070406 379  0.5-  0.6+    070414 113  0.0   0.3-
    070317 H45  0.0   0.2-    070406 379  0.1-  0.2-    070414 113  0.1+  0.1-
    070317 H45  0.0   0.0     070406 379  0.1+  0.2-    070414 084  0.4+  0.7-
    070317 H45  0.2-  0.1+    070406 379  0.2-  0.4+    070414 084  0.0   0.3-
    070317 H45  0.0   0.1+    070406 379  0.4-  0.5+    070414 084  0.0   1.3-
    070317 H45  0.0   0.0     070406 151  0.3+  0.0     070414 084  0.2+  0.4-
    070317 H45  0.1-  0.1-    070406 151  0.1+  0.0     070414 084  0.2+  0.3-
    070317 157  0.7+  0.6-    070406 151  0.0   0.1+    070414 084  0.2+  0.5-
    070318 703  0.1-  0.3+    070406 151  0.1+  0.0     070414 084  0.3+  0.3+
    070318 703  0.1+  0.1-    070406 151  0.0   0.2+    070414 084  0.1-  0.6-
    070318 703  0.1+  0.1+    070406 151  0.0   0.1+    070414 084  0.4-  0.1+
    070318 703  0.4+  0.1+    070406 151  0.1+  0.1-    070414 084  0.2-  0.2-
    070322 H45  0.1+  0.3+    070407 084  0.2-  0.1-    070414 084  0.0   0.3-
    070322 H45  0.2+  0.2+    070407 084  0.3-  0.1-    070414 084  0.1+  0.1+
    070322 H45  0.3+  0.1+    070407 084  0.4-  0.1+    070414 084  0.1+  0.3-
    070322 H45  0.2-  0.1+    070407 084  0.4-  0.0     070415 703  0.2-  0.1-
    070322 H45  0.2+  0.3+    070407 A24  0.2-  0.4+    070415 703  0.2-  0.1-
    070322 H45  0.2+  0.1+    070407 A24  0.6-  0.5+    070415 703  0.2-  0.1-
    070325 B30  0.2+  0.8-    070408 A17  0.5-  0.2+    070415 703  0.4-  0.7-
    070325 B30  0.1+  0.1-    070408 A17  0.3-  0.2+    070415 703  1.6-  0.6-
    070325 B30  0.5-  0.5+    070408 A17  0.4-  0.5+    070415 703  0.1+  0.5-
    070325 B30  0.1-  0.3+    070408 A13  0.8+  1.7-    070415 703  0.2-  0.3-
    070325 B30  0.1-  0.1-    070408 A13  0.8+  1.8-    070415 379  0.0   0.2+
    070325 B30  0.4-  0.1+    070408 A13  0.7+  1.4-    070415 379  0.1-  0.3+
    070325 B30  0.1-  0.1-    070408 A13  0.9+  1.7-    070415 379  0.1-  0.3+
    070325 B30  0.0   0.1-    070408 A13  0.8+  1.6-    070415 379  0.3-  0.5+
    070325 B30  0.5+  0.4+    070408 A13  0.9+  1.7-    070415 379  0.5-  0.3+
    070325 H45  0.3+  0.2+    070408 084  0.3-  0.1+    070415 379  0.5-  0.4+
    070325 H45  0.2+  0.1-    070408 084  0.1-  0.2-    070415 379  0.2+  0.1-
    070325 H45  0.4+  0.4+    070408 084  0.1-  0.1-    070415 379  0.1+  0.2-
    070325 H45  0.2+  0.2+    070408 084  0.3-  0.1+    070415 379  0.1-  0.2+
    070325 H45  0.2+  0.2-    070408 084  0.4-  0.3+    070415 379  0.0   0.3+
    070325 H45  0.3+  0.0     070408 084  0.3-  0.1-    070415 379  0.4-  0.3+
    070326 151  0.2-  0.1+    070408 084  0.2-  0.2-    070415 084  0.3+  0.5-
    070326 151  0.1-  0.0     070408 084  0.3-  0.0     070415 084  0.4+  0.7-
    070326 151  0.0   0.1-    070409 084  0.2-  0.0     070415 084  0.1-  0.0
    070326 084  0.1+  0.2+    070409 084  0.1-  0.2-    070415 084  0.2-  0.1-
    070326 084  0.2-  0.4+    070409 084  0.2-  0.1+    070415 084  0.4-  0.1-
    070327 300  0.0   0.1-    070409 084  0.2-  0.1-    070415 084  0.7-  0.1+
    070327 300  0.3+  0.2+    070409 A24  0.6+  0.4-    070415 084  0.3+  0.8-
    070327 300  0.3+  0.1+    070409 A24  0.2-  0.2+    070417 084  0.4+  0.1-
    070327 300  0.5+  0.1+    070409 A24  0.2-  0.2+    070417 084  0.2+  0.1-
    070327 300  0.5+  0.1-    070409 A24  0.3-  0.8+    070417 084  0.6+  0.2+
    070328 B30  0.0   1.5-    070409 379  0.2-  0.5+    070417 704  0.2-  0.3+
    070328 B30  0.0   0.4+    070409 379  0.1-  0.2+    070417 704  0.1-  0.5+
    070328 B30  0.9+  0.2+    070409 379  0.1-  0.1+    070417 704  0.1+  0.6+
    070328 B30  0.0   0.7+    070409 379  0.2-  0.4+    070417 704  0.0   1.0+
    070328 B30  0.0   1.1-    070409 379  0.4-  0.5+    070417 G72  1.8+  1.4-
    070328 B30  1.1+  0.4+    070409 379  0.4-  0.5+    070417 G72  0.3-  0.2-
    070328 B30  0.1-  1.1-    070409 379  0.7-  0.4+    070417 G72  0.6+  1.0+
    070328 B30  0.5+  0.3+    070409 379  0.5-  0.2+    070417 G72  0.3-  0.5+
    070328 B30  1.0+  0.3-    070409 379  0.3-  0.3+    070417 G72  0.2+  0.1-
    070328 B30  0.9-  0.0     070409 379  0.2-  0.0     070417 G72  0.3+  0.5+
    070328 B30  0.6-  1.9+    070409 379  0.4-  0.4+    070418 704  0.1+  0.5-
    070328 B30  0.9-  0.2+    070409 379  0.4-  0.1+    070418 704 (5.4-  0.2-)
    070328 B30  0.3+  0.8-    070409 379  0.5-  0.2+    070418 704  0.6+  0.3+
    070328 B30  0.1+  0.2-    070409 379  0.5-  0.4+    070418 704  0.2-  0.3-
    070328 B30  0.4+  0.8+    070409 379  0.4-  0.4+    070418 704  0.1+  0.4-
    070328 B30  1.0+  1.2+    070409 379  0.6-  0.4+    070419 379  0.3+  0.5+
    070328 B30 (1.7+  4.4-)   070409 084  0.2-  0.3-    070419 379  0.2+  0.5+
    070328 B30 (0.2-  2.6-)   070409 084  0.2-  0.1-    070419 379  0.0   0.4+
    070328 B30 (6.7-  0.9-)   070409 084  0.4-  0.1+    070419 379  0.2-  0.3+
    070328 B30  1.1-  0.3+    070409 084  0.1-  0.2-    070419 379  0.3-  0.1-
    070328 300  0.1-  0.5+    070409 084  0.1-  0.1-    070419 379  0.5+  0.6+
    070328 300  0.0   0.2+    070409 084  0.1-  0.4-    070419 379  0.5+  0.2+
    070328 300  0.3+  0.5+    070409 084  0.3-  0.0     070419 379  0.5+  0.1-
    070328 300  0.0   0.0     070409 084  0.0   0.4-    070419 379  0.2+  0.8+
    070328 300  0.1-  0.2+    070409 084  0.2-  0.0     070420 300  0.4-  0.6+
    070328 300  0.1+  0.7+    070410 084  0.2-  0.1-    070420 300 (2.2-  0.8+)
    070328 300  0.7+  0.7+    070410 084  0.3-  0.3+    070420 300 (2.1-  0.9+)
    070328 300  0.4+  0.2+    070410 084  0.1-  0.1-    070420 300  1.0-  0.3+
    070329 B30(14.4+  3.8-)   070410 084  0.1-  0.3-    070524 E12  0.5+  0.7+
    070329 B30(14.3+  3.6-)   070410 084  0.2-  0.0     070524 E12  0.0   0.5+
    070329 B30(15.2+  4.0-)   070410 084  0.1-  0.1-    070524 E12  0.7+  0.1+
    070329 B30(15.9+  4.3-)   070410 084  0.0   0.2-    070525 E12  0.2+  0.3+
    070329 B30(13.5+  5.0-)   070410 084  0.1-  0.1-    070525 E12  0.2+  0.6+
    070329 G72  0.5-  0.0     070410 084  0.0   0.1-    070525 E12  0.5-  0.0
    070329 G72  0.0   0.2+    070410 084  0.0   0.3-    070525 E12  0.2-  0.4+
    070329 G72  0.1+  0.0     070410 A24  1.1+  0.1-    120319 568  0.4-  0.4+
    070329 G72  0.1-  0.7-    070410 A24  0.4+  0.2+    120319 568  0.2-  0.1+
    070329 G72  0.2-  0.3+    070410 084  0.0   0.3-    120319 568  0.2-  0.3+
    070329 G72  0.2+  0.3-    070410 084  0.2-  0.1-    120319 568  0.2-  0.2+
    070329 084  0.8-  0.4+    070410 084  0.2-  0.2-    120320 568  0.1-  0.1+
    070329 084  0.6-  0.4+    070410 084  0.1-  0.4-    120320 568  0.0   0.1+
    070330 G72 (3.5-  1.9+)   070410 084  0.2-  0.1-    120320 568  0.0   0.2+
    070330 G72  0.7-  1.3-    070410 084  0.2-  0.2-    120320 568  0.0   0.1+
    070330 G72  0.9-  1.8-    070410 084  0.1-  0.3-
    
